Whitehorse International Airport
CYXY : now visible

Airfield :











YOU CAN JOIN US ON...

 
LOGIN :

Register | Disclaimer

   EN    FR    IT 

 









Legend :    VFR   Marginal VFR   IFR   Intensive IFR   Very Intensive IFR
Visi :
Ceiling :
>= 8 km
>= 3000ft
5 to 8 km
1000 to 3000 ft
1500m to 5 km
500 to 1000 ft
800 to 1500m
200 to 500 ft
< 800m
< 200 ft
Symbols :   Thunderstorms  Fog  Heavy snow  Heavy precipitations  Wind > 20 kt






- Airport Elevation : 2317 ft
- IATA code : YXY


CYXY - Whitehorse International

CURRENT METAR :
  • 280700Z 36003KT 15SM SCT065 M19/M21 A2939 RMK SC3 SLP022

EXPIRED METARs :
  • 280600Z VRB02KT 15SM R32L/4000VP6000FT/D BKN065 M17/M19 A2939 RMK SC5 SLP023
  • 280500Z 00000KT 15SM SCT078 M18/M20 A2939 RMK AC3 SLP023

TAF TAF CYXY
Valid from the 28 at 06:00 until the 28 at 18:00 UTC


280538Z 2806/2818 VRB03KT P6SM SCT070
TEMPO 2806/2818 P6SM -SN BKN070
BECMG 2807/2809 16012G22KT RMK NXT FCST BY 281200Z



MET'MAP, your aeronautical weather chart ! - Copyright ORBIFLY December 2007 - Disclaimer

ORBIFLY MET'MAP TEAM :

Programming & Development : Alexandra Zaïnal
Concept & original design : Baudouin d'Aumeries
Assistance for programming : Marc-Olivier Méhu
Technical & hardware support : Manuel Goepfert

Contact : metmap@orbifly.com




SOURCES & CREDITS :

   NOAA       Earth
Advisory